Wind_Speed
13 13 14 14 14 14 14 14 14 15 16 17 16 15 14 15 17 21 26 21 13 14 13 10 10 4 4 6 8 3 3 2 7 8 6 16 8 7 7 19 3 6 23 28 26
11 13 13 14 15 15 16 16 15 15 16 17 16 14 13 14 16 25 26 22 19 16 15 11 6 3 3 5 4 4 4 7 7 7 10 20 13 17 8 11 12 24 27 28 26
15 13 13 14 15 15 16 17 17 16 16 17 16 14 13 11 15 17 10 19 22 21 19 15 10 4 4 6 7 6 6 6 13 17 22 21 16 11 24 3 19 32 35 31 29
16 17 14 15 15 16 16 17 18 18 17 16 15 12 11 9 5 2 1 8 18 23 20 14 2 3 3 1 4 4 6 15 19 21 22 21 19 16 6 14 30 32 33 32 31
16 17 17 15 16 17 16 17 18 18 17 16 14 11 10 8 16 3 1 3 13 24 21 15 3 3 2 4 10 5 6 22 31 31 26 22 18 9 11 28 32 32 31 31 29
18 18 18 19 17 17 17 17 18 18 17 15 12 11 9 6 5 7 5 5 7 19 19 14 4 2 2 2 3 7 9 22 29 23 24 17 12 7 15 33 33 34 32 29 29
19 19 19 18 19 19 17 17 17 17 17 13 10 11 13 19 4 5 5 5 9 13 18 12 11 6 5 7 8 3 7 5 15 19 7 24 4 8 30 31 33 33 35 32 30
21 21 20 20 19 20 18 17 18 17 16 12 9 10 11 5 13 12 6 6 10 14 10 10 8 7 3 5 6 6 5 5 4 9 18 4 5 11 30 31 29 30 30 33 31
21 22 22 20 21 21 19 17 18 17 14 10 9 6 11 7 15 16 11 7 8 11 11 11 4 4 2 4 5 7 5 3 0 9 5 4 4 18 31 30 28 29 30 30 32
24 23 23 22 21 22 18 18 14 12 7 6 10 7 9 7 8 12 13 12 7 11 6 7 6 3 3 4 3 6 5 1 7 11 4 4 5 21 32 30 30 31 32 33 33
25 25 23 22 22 20 19 11 5 2 7 10 15 18 24 15 13 11 12 15 8 7 5 6 4 7 11 7 4 4 5 6 6 4 1 8 9 22 30 26 26 29 31 34 37
24 25 25 21 22 20 13 5 8 9 13 17 21 26 28 25 9 8 16 13 7 5 3 3 8 7 6 7 4 3 3 6 6 8 9 7 5 19 25 31 34 34 33 36 37
23 24 26 22 21 13 8 3 4 15 6 13 24 24 26 12 14 21 14 19 4 5 5 7 4 8 6 3 2 4 5 5 8 4 4 10 2 9 15 17 25 29 32 34 40
23 22 25 23 13 9 3 5 10 13 3 7 6 13 20 12 6 23 21 18 4 11 5 6 6 2 2 4 6 4 6 5 7 7 6 3 7 8 15 16 16 27 31 36 40
24 22 22 22 21 15 10 10 8 6 4 5 5 3 18 21 7 16 27 23 8 6 7 9 5 5 5 10 6 13 7 6 6 7 4 3 4 6 12 11 19 28 33 40 44
25 23 23 22 23 15 8 7 1 4 7 6 4 5 6 9 9 9 25 25 13 4 1 8 0 6 9 5 12 2 1 7 5 3 1 8 7 4 11 26 26 23 33 40 43
28 25 21 25 23 16 13 8 2 5 4 6 3 1 6 7 9 7 12 12 7 7 7 5 7 5 2 6 2 5 6 4 2 2 6 7 3 9 16 21 25 29 39 41 43
30 27 23 28 24 19 8 3 7 9 10 3 2 4 5 4 8 6 12 13 4 6 4 6 6 7 3 10 7 7 9 6 5 4 5 2 7 8 12 28 39 37 47 45 40
30 29 28 21 13 18 12 5 8 7 6 4 4 2 4 4 5 6 10 18 14 9 9 7 7 5 5 8 11 4 3 6 7 3 1 3 6 7 2 9 16 27 32 36 42
31 32 21 14 9 20 4 7 6 5 1 2 4 2 2 1 4 4 8 10 7 16 4 7 2 6 6 4 3 8 7 2 3 5 5 5 4 6 6 9 5 11 29 34 39
25 15 11 3 13 15 5 7 6 18 6 1 5 3 1 3 3 4 4 4 14 11 15 7 4 7 2 6 9 1 2 5 5 5 7 4 7 8 10 11 12 14 28 32 40
14 4 9 17 1 2 2 6 7 5 5 5 1 5 2 2 3 6 8 6 6 7 12 10 7 7 18 5 3 5 7 7 6 5 2 5 7 5 10 7 11 20 30 37 41
18 9 16 7 3 3 5 5 6 6 5 6 6 5 2 4 1 6 7 9 15 9 11 8 5 3 9 6 3 5 5 5 3 3 8 6 6 3 4 7 10 18 24 29 32
7 4 5 1 3 2 4 4 5 10 14 11 4 4 4 5 7 7 4 5 7 5 22 16 5 13 17 13 6 5 5 6 7 5 5 7 6 3 6 10 7 16 20 22 21
4 4 4 4 3 7 4 3 3 3 3 5 4 10 10 7 8 11 8 8 10 12 6 12 15 7 15 21 8 9 8 9 9 7 9 11 10 10 14 12 24 33 26 24 22
5 4 7 12 13 5 4 4 5 6 4 4 2 8 7 9 8 3 7 7 8 5 4 4 6 18 18 17 11 11 11 9 10 3 9 3 6 8 15 12 18 32 33 31 28
5 9 7 6 5 3 2 5 8 8 8 10 7 7 11 8 16 28 29 22 11 5 4 4 6 5 14 15 7 4 17 12 7 5 9 6 11 7 5 10 26 32 34 32 29
Wind_Direction
345 342 338 337 335 332 331 330 328 326 324 320 314 303 290 277 269 263 252 244 241 248 259 271 278 321 278 257 231 187 60 137 188 169 159 151 150 139 131 134 152 185 155 152 153
338 334 331 329 329 327 326 326 325 323 323 321 315 307 296 286 278 261 247 249 244 241 245 256 267 311 262 253 226 149 136 212 191 169 160 162 163 132 128 132 105 115 145 148 156
331 329 326 323 323 322 321 322 321 321 322 322 314 304 297 299 299 277 241 236 227 230 238 242 258 303 236 196 215 194 201 169 164 181 160 149 147 133 134 110 153 148 153 157 162
328 326 324 319 317 318 318 318 317 318 322 322 315 299 293 291 257 167 337 216 215 218 228 236 195 146 263 281 257 255 240 161 144 151 155 155 136 142 193 163 160 159 159 161 169
325 322 320 318 314 313 313 314 313 314 317 320 315 297 291 269 252 246 230 238 213 210 218 225 174 177 287 290 321 81 352 138 146 158 160 144 139 136 134 152 158 158 166 173 176
329 323 318 317 314 309 308 309 309 310 313 314 311 295 275 261 283 234 232 266 240 208 212 216 222 180 301 286 44 329 48 134 144 151 147 127 134 110 155 155 159 165 172 176 183
328 325 320 315 315 310 305 306 304 305 308 305 302 292 268 254 235 192 222 273 253 222 220 219 222 271 336 330 17 330 71 55 139 140 117 120 28 151 159 161 162 174 178 182 187
325 324 320 315 311 309 305 306 301 301 303 296 288 290 263 285 224 204 218 266 216 214 212 218 225 266 247 309 37 76 56 120 236 168 159 115 205 165 164 167 175 181 188 191 190
323 322 318 316 314 307 308 309 303 300 294 287 280 279 266 252 226 226 244 249 219 195 187 133 168 243 294 99 46 4 177 127 354 224 140 83 148 174 175 177 183 192 194 199 204
323 320 318 317 316 309 312 314 309 304 292 272 256 287 254 355 303 247 216 212 182 181 190 192 178 114 32 84 188 137 144 214 173 214 187 198 197 167 182 185 190 197 199 201 209
320 320 317 317 317 314 316 341 332 315 289 241 272 263 278 298 315 215 202 202 190 169 162 183 123 195 204 184 145 119 157 175 252 246 104 211 157 176 186 195 198 199 200 205 213
321 317 315 316 315 317 320 75 66 333 298 277 272 263 265 270 288 219 206 185 172 192 154 47 220 198 150 161 176 192 256 267 230 193 169 176 221 181 184 200 198 202 205 207 213
322 320 314 316 316 309 334 146 326 325 242 278 256 252 256 241 229 241 213 200 151 185 189 178 203 137 162 157 177 221 200 244 218 35 71 114 25 194 211 211 214 215 213 212 213
322 320 317 314 312 320 9 334 320 317 3 270 223 241 211 199 254 228 218 195 215 195 153 236 241 199 106 255 129 281 205 260 253 166 195 164 222 220 205 212 218 220 215 216 215
320 317 314 312 301 303 302 306 310 156 321 246 228 276 191 170 162 204 206 195 175 174 128 237 185 180 193 230 144 236 139 215 248 163 109 209 85 249 153 217 224 220 215 217 218
315 314 312 304 292 299 294 295 230 55 238 300 240 184 139 184 173 152 188 205 213 131 251 226 195 170 207 236 186 304 21 36 64 110 252 219 152 245 182 210 224 220 219 218 218
310 311 302 289 280 286 293 310 73 182 250 251 266 152 196 171 173 170 172 181 160 158 231 348 263 253 172 313 91 106 65 323 341 10 207 162 119 237 209 213 213 207 217 217 216
310 309 295 276 279 269 267 62 212 191 222 290 331 27 188 159 203 164 165 193 208 115 137 169 291 183 184 190 200 178 162 170 197 207 228 75 202 245 219 224 218 213 211 210 211
313 308 296 308 280 232 181 190 209 213 201 284 6 284 224 218 168 141 181 197 195 176 171 155 257 272 197 199 148 237 178 199 113 8 31 216 286 322 175 258 241 217 207 207 209
322 317 313 312 234 185 143 226 220 235 346 53 180 153 201 91 113 172 175 198 209 193 153 205 256 211 244 174 245 165 167 93 1 157 236 286 279 234 307 282 271 199 205 207 208
327 320 333 282 167 177 198 218 223 264 319 137 218 231 137 5 104 148 241 256 201 195 191 157 147 270 86 186 199 203 187 46 121 136 176 217 258 218 221 230 205 202 200 199 208
330 319 113 127 23 218 208 189 222 240 245 255 216 209 212 166 246 208 205 192 183 159 173 207 183 226 240 231 225 164 204 168 149 226 159 169 262 215 241 207 197 201 198 209 220
325 279 220 282 221 244 275 268 234 223 216 198 219 183 168 152 329 225 223 225 242 192 191 175 219 242 293 309 327 209 194 149 105 70 189 176 260 339 200 164 203 194 197 207 214
308 318 315 81 112 27 353 263 244 241 257 251 236 280 294 265 212 254 253 290 325 292 226 167 159 195 226 228 167 202 192 175 153 171 174 208 221 246 212 178 199 188 175 177 182
266 264 2 329 323 328 277 257 250 268 300 232 233 209 206 234 207 233 237 270 284 275 245 171 223 187 224 222 180 189 192 170 182 198 187 230 198 217 201 195 191 171 166 166 181
279 329 338 305 293 315 278 40 37 0 306 303 244 335 281 223 208 252 201 199 242 297 231 157 237 211 230 227 212 210 229 220 220 176 252 185 229 222 203 147 157 174 168 172 178
279 296 314 284 311 348 264 359 337 357 278 284 332 313 290 266 264 249 244 243 237 229 285 192 153 133 230 220 195 271 228 210 197 179 167 173 226 154 159 170 181 179 172 169 174
Height
1531 1529 1527 1525 1523 1521 1518 1516 1514 1512 1510 1507 1505 1502 1500 1499 1498 1496 1494 1499 1501 1502 1502 1503 1504 1506 1508 1507 1507 1506 1516 1525 1518 1516 1518 1519 1519 1523 1522 1524 1527 1529 1530 1536 1541
1531 1528 1526 1524 1522 1520 1517 1514 1512 1510 1508 1505 1502 1500 1498 1496 1495 1489 1491 1495 1498 1500 1501 1502 1504 1506 1506 1504 1503 1504 1517 1511 1503 1506 1512 1514 1517 1519 1524 1527 1529 1528 1535 1539 1542
1529 1527 1524 1522 1520 1518 1515 1513 1510 1508 1506 1503 1500 1498 1497 1495 1493 1485 1487 1489 1493 1496 1498 1500 1503 1505 1504 1503 1501 1500 1506 1500 1500 1502 1510 1514 1520 1519 1522 1530 1527 1527 1533 1538 1542
1527 1525 1523 1520 1517 1515 1513 1510 1508 1505 1503 1501 1498 1496 1495 1495 1497 1485 1485 1486 1488 1491 1494 1497 1501 1502 1501 1502 1498 1498 1489 1490 1494 1502 1511 1513 1515 1519 1520 1519 1526 1532 1535 1538 1541
1525 1522 1519 1518 1515 1512 1509 1507 1505 1503 1501 1499 1497 1495 1494 1493 1486 1485 1485 1484 1485 1487 1490 1493 1497 1499 1499 1497 1494 1492 1493 1489 1494 1503 1509 1513 1515 1517 1521 1523 1528 1534 1538 1540 1542
1524 1520 1517 1514 1512 1509 1507 1504 1502 1500 1499 1496 1495 1493 1493 1492 1483 1483 1484 1484 1485 1486 1489 1491 1495 1497 1498 1497 1496 1494 1494 1494 1500 1506 1509 1511 1519 1520 1528 1526 1531 1533 1537 1541 1543
1521 1518 1515 1512 1508 1506 1504 1501 1499 1497 1496 1494 1493 1491 1489 1481 1481 1482 1483 1483 1484 1486 1488 1492 1494 1496 1497 1495 1497 1495 1505 1506 1505 1505 1512 1514 1524 1524 1525 1530 1531 1534 1535 1538 1541
1519 1515 1512 1509 1506 1503 1501 1498 1496 1493 1492 1491 1491 1490 1483 1478 1478 1479 1481 1482 1483 1485 1489 1492 1494 1495 1496 1495 1497 1502 1511 1523 1511 1510 1511 1511 1534 1525 1527 1530 1532 1533 1537 1538 1540
1516 1513 1509 1506 1503 1499 1497 1496 1492 1490 1489 1489 1489 1488 1480 1476 1476 1478 1480 1481 1482 1485 1488 1491 1494 1494 1493 1500 1515 1514 1529 1521 1515 1507 1508 1513 1528 1524 1526 1529 1531 1532 1533 1537 1539
1513 1510 1506 1503 1500 1496 1495 1492 1489 1488 1486 1487 1486 1490 1477 1477 1476 1475 1478 1480 1482 1484 1488 1491 1492 1497 1500 1506 1531 1519 1523 1517 1518 1506 1509 1515 1518 1519 1523 1526 1528 1529 1530 1532 1534
1509 1506 1503 1501 1497 1494 1492 1491 1491 1489 1485 1481 1480 1478 1474 1475 1474 1474 1477 1479 1482 1483 1488 1487 1496 1505 1496 1495 1500 1503 1511 1517 1507 1503 1511 1513 1514 1514 1518 1524 1525 1526 1528 1528 1528
1506 1502 1500 1498 1495 1493 1492 1492 1494 1497 1485 1475 1472 1470 1469 1473 1475 1472 1475 1479 1480 1485 1484 1491 1497 1486 1489 1493 1497 1501 1508 1510 1502 1496 1505 1515 1515 1511 1514 1511 1515 1517 1520 1522 1527
1504 1500 1496 1495 1492 1492 1491 1492 1493 1492 1489 1467 1464 1462 1463 1468 1468 1467 1472 1474 1477 1484 1484 1492 1484 1481 1486 1492 1497 1502 1508 1504 1506 1496 1502 1510 1524 1519 1515 1516 1518 1518 1518 1520 1520
1501 1498 1494 1491 1492 1490 1490 1490 1489 1488 1494 1468 1457 1449 1455 1461 1462 1462 1466 1472 1475 1481 1484 1485 1478 1479 1485 1491 1495 1509 1488 1496 1501 1509 1522 1500 1539 1521 1511 1514 1515 1513 1513 1514 1515
1498 1495 1493 1490 1488 1488 1490 1488 1487 1487 1515 1454 1449 1445 1444 1450 1453 1454 1461 1467 1472 1474 1480 1483 1476 1481 1489 1485 1488 1492 1485 1492 1492 1505 1508 1511 1528 1514 1511 1519 1507 1502 1504 1506 1508
1495 1492 1489 1487 1484 1486 1485 1485 1485 1499 1509 1460 1444 1442 1446 1445 1449 1452 1458 1465 1467 1472 1473 1476 1473 1474 1475 1471 1478 1474 1484 1495 1505 1514 1531 1511 1517 1519 1511 1496 1489 1497 1498 1498 1502
1489 1488 1486 1481 1480 1482 1483 1484 1495 1504 1461 1455 1447 1443 1444 1446 1448 1451 1457 1464 1475 1492 1491 1480 1476 1469 1470 1477 1476 1483 1503 1533 1529 1534 1535 1509 1518 1499 1482 1475 1474 1480 1484 1489 1494
1483 1481 1478 1473 1475 1478 1482 1486 1497 1467 1459 1443 1442 1443 1450 1444 1446 1450 1456 1465 1464 1470 1491 1498 1500 1470 1464 1472 1478 1484 1495 1528 1532 1539 1523 1508 1520 1494 1464 1465 1464 1467 1468 1477 1487
1478 1473 1467 1467 1467 1471 1479 1490 1467 1464 1448 1446 1441 1447 1447 1442 1444 1449 1455 1455 1456 1462 1482 1497 1491 1460 1458 1459 1467 1479 1495 1481 1512 1517 1520 1510 1485 1466 1464 1462 1460 1464 1469 1473 1478
1474 1467 1462 1461 1460 1465 1473 1468 1459 1448 1444 1443 1451 1445 1454 1448 1450 1452 1457 1445 1451 1451 1455 1469 1486 1461 1455 1457 1459 1467 1469 1496 1509 1525 1526 1512 1498 1493 1465 1461 1458 1462 1462 1466 1472
1475 1468 1462 1456 1459 1463 1466 1462 1454 1446 1446 1446 1449 1448 1449 1449 1447 1453 1451 1443 1441 1446 1450 1462 1475 1468 1456 1463 1468 1471 1476 1484 1490 1505 1520 1527 1510 1466 1460 1453 1454 1454 1455 1460 1466
1476 1473 1463 1462 1463 1462 1460 1452 1448 1444 1443 1445 1443 1445 1447 1447 1451 1451 1449 1440 1435 1440 1453 1454 1466 1479 1461 1449 1448 1451 1462 1470 1496 1502 1507 1510 1498 1452 1450 1447 1450 1450 1453 1457 1462
1476 1467 1463 1462 1465 1460 1453 1447 1444 1443 1441 1442 1443 1440 1440 1445 1454 1447 1439 1428 1430 1435 1442 1447 1469 1487 1474 1460 1450 1453 1454 1460 1474 1480 1497 1502 1494 1449 1448 1446 1449 1451 1452 1456 1462
1480 1474 1460 1459 1459 1459 1457 1450 1444 1438 1439 1440 1440 1441 1445 1447 1446 1443 1435 1425 1422 1424 1424 1429 1452 1451 1463 1456 1450 1454 1448 1454 1461 1484 1486 1484 1467 1452 1452 1448 1448 1450 1452 1456 1460
1481 1474 1472 1470 1461 1463 1459 1449 1443 1441 1436 1435 1436 1437 1443 1448 1443 1439 1436 1433 1424 1420 1420 1426 1441 1446 1433 1430 1440 1441 1440 1450 1458 1455 1467 1455 1465 1449 1444 1444 1442 1445 1452 1454 1458
1480 1477 1473 1471 1465 1462 1454 1450 1449 1446 1444 1438 1437 1437 1436 1440 1438 1433 1432 1433 1431 1419 1419 1419 1435 1428 1431 1427 1434 1436 1433 1434 1440 1445 1448 1445 1453 1432 1430 1438 1445 1445 1447 1451 1454
1478 1476 1475 1469 1465 1464 1456 1455 1451 1450 1443 1440 1441 1442 1435 1430 1428 1424 1420 1419 1419 1421 1422 1423 1431 1442 1441 1425 1434 1451 1429 1430 1432 1432 1435 1452 1433 1428 1434 1435 1439 1443 1444 1444 1450